星链-3981 (STARLINK-3981 )

导读

STARLINK-3981是美国SpaceX公司星链星座中的一颗卫星,于2022年5月18日发射升空,属于星链项目低轨互联网卫星群组。它沿近地轨道运行,承担着为全球提供高速宽带互联网服务的任务,尤其为偏远地区和网络基础设施薄弱区域提供网络接入支持,是星链全球组网建设中的组成单元。

基本信息
目录编号:
52687
目录名称:
STARLINK-3981
国际标识:
2022-053AH
轨道中心:
EARTH
卫星名称:
星链-3981
卫星全名:
星链-3981 (STARLINK-3981 )
卫星状态:
在轨 (已飞行1570 天)
发射日期:
2022-05-18 UTC
国别 :
美国 (US)
星等 :
--
轨道信息
数据来源 国际轨道数据
星历时间: 2026-09-05T02:00:01+0800
2小时前
查看轨道信息
半长轴: 6897.979km
偏心率: 0.0001811
轨道倾角: 53.161°
近地点辐角 83.345°
升交点赤经 59.620°
平近点角 208.912°
近地点: 518.592km
远地点: 521.092km
周期: 95.026分钟
每日圈数: 15.153747
详细信息
固有亮度:
5
最大亮度:
2.5
卫星平台:
Starlink v1.5
覆盖范围:
全球
运营商:
太空探索技术公司
运营商所在国:
美国
制造商(研发单位):
太空探索技术公司
制造商所在国:
美国
使用方式:
暂无
卫星简介
星链(Starlink)计划是由太空探索技术公司(SpaceX)提出的一个巨型低轨卫星互联网星座项目,计划在2019年至2024年间在太空搭建由约1.2万颗卫星组成的“星链”网络,其中1584颗将部署在地球上空550千米处的近地轨道,并从2020年开始工作。该卫星仍在工作。
2D轨道图
3D轨道图
轨道高度分析图
轨道倾角分析图
轨道综合分析图
查看轨道综合分析图
交会数据列表
事件ID 空间交会对象 最接近时刻(TCA) 交会距离 交会风险概率(CRP) 交会风险指数(CRI) 操作
CDM_260905-211905-268706-145821
2026-09-05T
21:19:35+0000
1.512 km
极远距离
6.379686E-6 低风险 0.51
CDM_260903-202004-681005-268722
TIANQI-6 (46810)
2026-09-03T
20:20:52+0000
2.250 km
极远距离
1.697204E-6 低风险 0.4
CDM_260901-223005-268706-441221
2026-09-01T
22:30:08+0000
2.891 km
极远距离
1.052591E-6 低风险 0.35